MARINA

Last updated on Mon Sep 21 2026 00:03:15 GMT+0000 (Coordinated Universal Time)

1 69920U 26156BD 26263.45252805 .00001336 00000+0 13668-3 0 9995 2 69920 97.7439 162.6688 0005843 265.8739 94.1812 14.92179346 11209
UTC large
Height (km)
Speed (km/s)
/
Latitude / Longitude
Inclination (degrees)
Orbital Period (minutes)
Azimuth
Elevation
Range (km)
Doppler Factor

Next 0 passes for location: London (51.5072 / 0.1276)

No passes found over London.
MARINA